{"data":{"norad_id":39008,"epoch":"2026-09-19T09:50:10.455936Z","epoch_age_seconds":119826,"freshness":"FRESH","line1":"1 39008U 12065A   26262.40984324  .00000000  00000+0  00000+0 0  9994","line2":"2 39008   0.0226 154.2192 0002373  26.5103 263.6361  1.00272976 50587","mean_motion":1.00272976,"eccentricity":0.0002373,"inclination_deg":0.0226,"raan_deg":154.2192,"arg_perigee_deg":26.5103,"mean_anomaly_deg":263.6361,"bstar":0,"rev_number":5058,"period_min":1436.0798466777,"perigee_km":35776.255472296,"apogee_km":35796.266695626,"semimajor_km":42164.398083961,"source":"CELESTRAK","updated_at":"2026-09-20T09:00:35.178788Z"}}